• In Uzbekistan
  • List of Countries
  • For 7 days
  • Water Temperature
  • Satellite Maps
  • Weather Map
  • Weather Widgets
  • user-avatar
    Login

    Hourly Weather Cordeiropolis

    Today, 21 February, Wednesday

    Time Temperature Precipitation Wind Pressure Humidity
    00:00 +23°C° 1.2 mm 2 mps 702 mmHg 95%
    01:00 +23°C° 1.5 mm 2 mps 702 mmHg 96%
    02:00 +23°C° 1.5 mm 2 mps 702 mmHg 96%
    03:00 +23°C° 1.5 mm 2 mps 702 mmHg 97%
    04:00 +21°C° 1.2 mm 2 mps 702 mmHg 97%
    05:00 +21°C° 1.2 mm 2 mps 702 mmHg 97%
    06:00 +21°C° 1.2 mm 2 mps 702 mmHg 98%
    07:00 +23°C° 0.5 mm 2 mps 702 mmHg 95%
    08:00 +24°C° 0.5 mm 2 mps 703 mmHg 93%
    09:00 +25°C° 0.5 mm 3 mps 703 mmHg 90%
    10:00 +26°C° 0.8 mm 3 mps 703 mmHg 86%
    11:00 +27°C° 0.8 mm 3 mps 703 mmHg 82%
    12:00 +28°C° 0.8 mm 3 mps 703 mmHg 78%
    13:00 +28°C° 0.8 mm 3 mps 702 mmHg 75%
    14:00 +29°C° 0.8 mm 3 mps 702 mmHg 73%
    15:00 +29°C° 0.8 mm 3 mps 701 mmHg 70%
    16:00 +29°C° 0.1 mm 2 mps 701 mmHg 73%
    17:00 +28°C° 0.1 mm 2 mps 700 mmHg 75%
    18:00 +28°C° 0.1 mm 1 mps 700 mmHg 77%
    19:00 +26°C° 0 mm 1 mps 701 mmHg 80%
    20:00 +25°C° 0 mm 1 mps 701 mmHg 83%
    21:00 +24°C° 0 mm 1 mps 701 mmHg 85%
    22:00 +23°C° 0 mm 1 mps 702 mmHg 87%
    23:00 +23°C° 0 mm 1 mps 702 mmHg 88%

    Tomorrow, 22 February, Thursday

    Time Temperature Precipitation Wind Pressure Humidity
    00:00 +23°C° 0 mm 1 mps 702 mmHg 90%
    01:00 +22°C° 0 mm 1 mps 702 mmHg 91%
    02:00 +22°C° 0 mm 1 mps 701 mmHg 92%
    03:00 +22°C° 0 mm 1 mps 701 mmHg 93%
    04:00 +21°C° 0 mm 1 mps 701 mmHg 93%
    05:00 +21°C° 0 mm 1 mps 701 mmHg 94%
    06:00 +19°C° 0 mm 0 mps 701 mmHg 94%
    07:00 +23°C° 0 mm 1 mps 702 mmHg 90%
    08:00 +24°C° 0 mm 1 mps 702 mmHg 86%
    09:00 +26°C° 0 mm 1 mps 703 mmHg 81%
    10:00 +27°C° 0.1 mm 1 mps 703 mmHg 75%
    11:00 +28°C° 0.1 mm 1 mps 703 mmHg 70%
    12:00 +30°C° 0.1 mm 2 mps 703 mmHg 64%
    13:00 +30°C° 0.2 mm 2 mps 703 mmHg 63%
    14:00 +30°C° 0.2 mm 2 mps 702 mmHg 62%
    15:00 +30°C° 0.2 mm 2 mps 701 mmHg 61%
    16:00 +29°C° 0.5 mm 2 mps 701 mmHg 67%
    17:00 +28°C° 0.5 mm 2 mps 701 mmHg 72%
    18:00 +27°C° 0.5 mm 1 mps 701 mmHg 78%
    19:00 +26°C° 0.3 mm 2 mps 702 mmHg 81%
    20:00 +25°C° 0.3 mm 3 mps 702 mmHg 84%
    21:00 +24°C° 0.3 mm 3 mps 702 mmHg 87%
    22:00 +22°C° 0 mm 3 mps 703 mmHg 89%
    23:00 +21°C° 0 mm 3 mps 703 mmHg 90%

    Day after tomorrow, 23 February, Friday

    Time Temperature Precipitation Wind Pressure Humidity
    00:00 +21°C° 0 mm 3 mps 703 mmHg 92%
    01:00 +21°C° 0 mm 3 mps 703 mmHg 92%
    02:00 +20°C° 0 mm 3 mps 702 mmHg 93%
    03:00 +20°C° 0 mm 3 mps 702 mmHg 93%
    04:00 +20°C° 0 mm 3 mps 702 mmHg 93%
    05:00 +19°C° 0 mm 2 mps 702 mmHg 93%
    06:00 +19°C° 0 mm 2 mps 703 mmHg 93%
    07:00 +21°C° 0 mm 3 mps 703 mmHg 88%
    08:00 +22°C° 0 mm 3 mps 704 mmHg 83%
    09:00 +25°C° 0 mm 3 mps 705 mmHg 78%
    10:00 +26°C° 0 mm 3 mps 705 mmHg 72%
    11:00 +28°C° 0 mm 3 mps 705 mmHg 66%
    12:00 +29°C° 0 mm 3 mps 705 mmHg 61%
    13:00 +30°C° 0.1 mm 3 mps 704 mmHg 60%
    14:00 +30°C° 0.1 mm 3 mps 703 mmHg 60%
    15:00 +30°C° 0.1 mm 4 mps 703 mmHg 59%
    16:00 +29°C° 0.1 mm 4 mps 703 mmHg 64%
    17:00 +28°C° 0.1 mm 4 mps 703 mmHg 70%
    18:00 +26°C° 0.1 mm 5 mps 703 mmHg 75%
    19:00 +25°C° 0 mm 5 mps 703 mmHg 75%
    20:00 +23°C° 0 mm 5 mps 704 mmHg 75%
    21:00 +21°C° 0 mm 5 mps 705 mmHg 75%
    22:00 +21°C° 0 mm 4 mps 705 mmHg 76%
    23:00 +20°C° 0 mm 4 mps 705 mmHg 78%

    24 February, Saturday

    Time Temperature Precipitation Wind Pressure Humidity
    00:00 +20°C° 0 mm 3 mps 705 mmHg 79%
    01:00 +19°C° 0 mm 3 mps 704 mmHg 81%
    02:00 +19°C° 0 mm 3 mps 704 mmHg 82%
    03:00 +18°C° 0 mm 3 mps 703 mmHg 84%
    04:00 +18°C° 0 mm 3 mps 703 mmHg 85%
    05:00 +18°C° 0 mm 3 mps 704 mmHg 86%
    06:00 +18°C° 0 mm 3 mps 704 mmHg 87%
    07:00 +19°C° 0 mm 3 mps 705 mmHg 83%
    08:00 +21°C° 0 mm 3 mps 705 mmHg 79%
    09:00 +22°C° 0 mm 4 mps 706 mmHg 74%
    10:00 +25°C° 0 mm 3 mps 706 mmHg 69%
    11:00 +26°C° 0 mm 3 mps 706 mmHg 64%
    12:00 +28°C° 0 mm 3 mps 706 mmHg 59%
    13:00 +29°C° 0 mm 3 mps 705 mmHg 58%
    14:00 +29°C° 0 mm 3 mps 705 mmHg 57%
    15:00 +29°C° 0 mm 3 mps 704 mmHg 56%
    16:00 +28°C° 0 mm 4 mps 704 mmHg 61%
    17:00 +27°C° 0 mm 4 mps 704 mmHg 66%
    18:00 +26°C° 0 mm 4 mps 704 mmHg 71%
    19:00 +25°C° 0 mm 4 mps 705 mmHg 70%
    20:00 +23°C° 0 mm 4 mps 705 mmHg 70%
    21:00 +22°C° 0 mm 5 mps 705 mmHg 70%
    22:00 +21°C° 0 mm 4 mps 705 mmHg 72%
    23:00 +20°C° 0 mm 4 mps 705 mmHg 75%

    25 February, Sunday

    Time Temperature Precipitation Wind Pressure Humidity
    00:00 +20°C° 0 mm 3 mps 705 mmHg 77%
    01:00 +19°C° 0 mm 3 mps 705 mmHg 78%
    02:00 +19°C° 0 mm 3 mps 705 mmHg 79%
    03:00 +19°C° 0 mm 2 mps 704 mmHg 80%
    04:00 +18°C° 0 mm 2 mps 705 mmHg 81%
    05:00 +18°C° 0 mm 2 mps 705 mmHg 82%
    06:00 +18°C° 0 mm 2 mps 705 mmHg 82%
    07:00 +19°C° 0 mm 2 mps 706 mmHg 80%
    08:00 +21°C° 0 mm 2 mps 706 mmHg 77%
    09:00 +22°C° 0 mm 3 mps 707 mmHg 74%
    10:00 +24°C° 0 mm 2 mps 707 mmHg 71%
    11:00 +26°C° 0 mm 2 mps 707 mmHg 67%
    12:00 +27°C° 0 mm 1 mps 707 mmHg 63%
    13:00 +27°C° 0 mm 1 mps 706 mmHg 63%
    14:00 +27°C° 0 mm 1 mps 705 mmHg 63%
    15:00 +27°C° 0 mm 1 mps 705 mmHg 64%
    16:00 +27°C° 0 mm 2 mps 704 mmHg 67%
    17:00 +26°C° 0 mm 2 mps 704 mmHg 71%
    18:00 +25°C° 0 mm 3 mps 704 mmHg 75%
    19:00 +24°C° 0 mm 3 mps 705 mmHg 76%
    20:00 +23°C° 0 mm 4 mps 705 mmHg 77%
    21:00 +22°C° 0 mm 4 mps 705 mmHg 78%
    22:00 +21°C° 0 mm 4 mps 705 mmHg 79%
    23:00 +21°C° 0 mm 3 mps 705 mmHg 80%

    26 February, Monday

    Time Temperature Precipitation Wind Pressure Humidity
    00:00 +20°C° 0 mm 3 mps 705 mmHg 82%
    01:00 +20°C° 0 mm 3 mps 705 mmHg 83%
    02:00 +19°C° 0 mm 2 mps 705 mmHg 84%
    03:00 +19°C° 0 mm 2 mps 704 mmHg 86%
    04:00 +19°C° 0 mm 2 mps 704 mmHg 86%
    05:00 +19°C° 0 mm 2 mps 705 mmHg 86%
    06:00 +19°C° 0 mm 2 mps 705 mmHg 86%
    07:00 +20°C° 0 mm 2 mps 705 mmHg 83%
    08:00 +21°C° 0 mm 2 mps 706 mmHg 79%
    09:00 +24°C° 0 mm 2 mps 706 mmHg 75%
    10:00 +25°C° 0 mm 2 mps 706 mmHg 74%
    11:00 +25°C° 0 mm 2 mps 706 mmHg 73%
    12:00 +26°C° 0 mm 2 mps 706 mmHg 72%
    13:00 +26°C° 0.8 mm 2 mps 705 mmHg 73%
    14:00 +26°C° 0.8 mm 2 mps 705 mmHg 75%
    15:00 +26°C° 0.8 mm 2 mps 704 mmHg 76%
    16:00 +25°C° 1 mm 2 mps 704 mmHg 81%
    17:00 +24°C° 1 mm 2 mps 704 mmHg 85%
    18:00 +23°C° 1 mm 2 mps 704 mmHg 90%
    19:00 +23°C° 0.4 mm 2 mps 704 mmHg 91%
    20:00 +23°C° 0.4 mm 2 mps 704 mmHg 92%
    21:00 +21°C° 0.4 mm 2 mps 704 mmHg 93%
    22:00 +21°C° 0.1 mm 2 mps 704 mmHg 93%
    23:00 +20°C° 0.1 mm 2 mps 704 mmHg 94%
    Show more